Shreveport, LA

3:40 PM CST on February 24, 2017 (GMT -0600)
Shreveport Downtown

Weather History for KDTN - May, 2013

Change the Weather History Date:

Saturday, May 25, 2013

  Actual Average (KBAD) Record (KBAD)
Temperature  
Mean Temperature 76 °F -  
Max Temperature 88 °F 82 °F 94 °F (2012)
Min Temperature 66 °F 64 °F 60 °F (1999)
Cooling Degree Days 11    
Growing Degree Days 26 (Base 50)    
Moisture  
Dew Point 64 °F    
Average Humidity 67    
Maximum Humidity 93    
Minimum Humidity 55    
Precipitation  
Precipitation 0.07 in - - ()
Sea Level Pressure  
Sea Level Pressure 30.15 in    
Wind  
Wind Speed 6 mph (SE)    
Max Wind Speed 17 mph    
Max Gust Speed 24 mph    
Visibility 10 miles    
Events Rain    
Averages and records for this station are not official NWS values.
T = Trace of Precipitation, MM = Missing Value Source: NWS Daily Summary

Daily Weather History Graph

Daily Weather History Graph

Search for Another Location

Airport or City:

Trip Planner

Search our weather history database for the weather conditions in past years. The results will help you decide how hot, cold, wet, or windy it might be!

Date:

Astronomy

May. 25, 2013 Rise Set
Actual Time 6:10 AM CDT 8:13 PM CDT
Civil Twilight 5:43 AM CDT 8:41 PM CDT
Nautical Twilight 5:09 AM CDT 9:14 PM CDT
Astronomical Twilight 4:33 AM CDT 9:51 PM CDT
Moon 9:02 PM CDT (5/25) 6:37 AM CDT (5/25)
Length of Visible Light 14h 58m
Length of Day
14h 02m
Full, 100% of the Moon is Illuminated
May 25
Full
May 31
Last Quarter
Jun 8
New
Jun 16
First Quarter
Jun 23
Full

Hourly Weather History & Observations

Time (CDT) Temp. Heat Index Dew Point Humidity Pressure Visibility Wind Dir Wind Speed Gust Speed Precip Events Conditions
12:53 AM 72.0 °F - 60.1 °F 66% 30.17 in 10.0 mi East 5.8 mph - N/A   Clear
1:53 AM 71.1 °F - 59.0 °F 66% 30.16 in 10.0 mi East 3.5 mph - N/A   Clear
2:53 AM 69.1 °F - 59.0 °F 70% 30.14 in 10.0 mi East 4.6 mph - N/A   Mostly Cloudy
3:53 AM 69.1 °F - 57.9 °F 68% 30.16 in 10.0 mi Calm Calm - N/A   Clear
4:53 AM 68.0 °F - 57.9 °F 70% 30.17 in 10.0 mi Calm Calm - N/A   Mostly Cloudy
5:53 AM 66.9 °F - 59.0 °F 76% 30.17 in 10.0 mi East 3.5 mph - N/A   Overcast
6:53 AM 68.0 °F - 57.9 °F 70% 30.18 in 10.0 mi East 4.6 mph - N/A   Partly Cloudy
7:53 AM 69.1 °F - 59.0 °F 70% 30.19 in 10.0 mi ESE 6.9 mph - N/A   Clear
8:53 AM 71.1 °F - 60.1 °F 68% 30.20 in 10.0 mi ESE 6.9 mph - N/A   Clear
9:53 AM 75.0 °F - 61.0 °F 62% 30.21 in 10.0 mi SE 9.2 mph - N/A   Clear
10:53 AM 77.0 °F - 61.0 °F 58% 30.20 in 10.0 mi SSE 10.4 mph - N/A   Clear
11:53 AM 81.0 °F 82.7 °F 64.9 °F 58% 30.19 in 10.0 mi SSE 8.1 mph - N/A   Clear
12:53 PM 82.9 °F 85.0 °F 66.0 °F 56% 30.18 in 10.0 mi SSE 6.9 mph - N/A   Partly Cloudy
1:53 PM 84.9 °F 88.2 °F 68.0 °F 57% 30.16 in 10.0 mi ESE 9.2 mph - N/A   Clear
2:53 PM 84.9 °F 87.6 °F 66.9 °F 55% 30.14 in 10.0 mi SE 8.1 mph - N/A   Partly Cloudy
3:53 PM 84.0 °F 87.0 °F 68.0 °F 58% 30.12 in 10.0 mi SE 5.8 mph - N/A   Partly Cloudy
4:35 PM 84.2 °F 87.3 °F 68.0 °F 58% 30.11 in 1.8 mi South 5.8 mph - N/A   Haze
4:50 PM 86.0 °F 90.4 °F 69.8 °F 58% 30.11 in 10.0 mi SSE 5.8 mph - N/A   Partly Cloudy
4:53 PM 84.9 °F 88.2 °F 68.0 °F 57% 30.11 in 10.0 mi SSE 5.8 mph - N/A   Partly Cloudy
5:53 PM 84.0 °F 87.0 °F 68.0 °F 58% 30.09 in 10.0 mi SE 8.1 mph - N/A   Clear
6:53 PM 82.9 °F 85.8 °F 68.0 °F 60% 30.09 in 10.0 mi ESE 8.1 mph - N/A   Clear
7:53 PM 82.0 °F 85.5 °F 69.1 °F 65% 30.10 in 10.0 mi SSE 10.4 mph - N/A   Mostly Cloudy
8:17 PM 75.2 °F - 62.6 °F 65% 30.13 in 10.0 mi SSW 17.3 mph 24.2 mph N/A   Overcast
8:53 PM 70.0 °F - 66.0 °F 87% 30.12 in 7.0 mi South 3.5 mph - 0.02 in Rain Light Rain
9:53 PM 69.1 °F - 66.0 °F 90% 30.11 in 10.0 mi East 4.6 mph - 0.05 in   Scattered Clouds
10:53 PM 70.0 °F - 66.9 °F 90% 30.14 in 10.0 mi Calm Calm - N/A   Partly Cloudy
11:53 PM 69.1 °F - 66.9 °F 93% 30.12 in 10.0 mi Calm Calm - N/A   Clear